Startpagina
METAR-TAF:

METAR-TAF

Vliegvelden :

Productieplatform

K13-a, Nederland

breedte: 53-13-04N, lengte: 3-13-13E, hoogte: 31 m

Actueel weer

Dit bericht is 41 minuten geleden gemaakt, om 06:25 UTC
Wind 6 kt uit het westzuidwesten
Temperatuur 14°C
Vochtigheid 77%
Druk 1029 hPa

METAR: EHJR 200625Z AUTO 25006KT //// // ///////// 14/10 Q1029 RE// W16/H7

Tijdstip: 09:06 (07:06 UTC)


TAF: ontbreekt

Waarnemingen en weersverwachtingen van meer dan 4000 vliegvelden (METAR en TAF).

De beschikbare stations zijn de gele en rode punten op de kaart.

Ga met uw muis naar het station om de naam te zien.

Klik dan om waarnemingen en weersverwachtingen te zien.

kaart wijzigen: klik op de groene knoppen met een zwart kruis om in te zoomen, op de groene knop met een streepje om uit te zoomen of op de groene pijlen voor aangrenzende kaarten.


METAR-TAF: